Location: Unspecified
(0.0000°N, 0.0000°E)
Time: 01:19:21
(UTC+01:00)

Cosmos 1515 Rocket - Visible Passes

Search period start: 22 January 2018 00:00
Search period end: 01 February 2018 00:00
Orbit: 606 x 631 km, 82.5° (Epoch: 20 January)

Date Brightness Start Highest point End Pass type
(mag) Time Alt. Az. Time Alt. Az. Time Alt. Az.
22 Jan 4.2 20:25:35 10° NNW 20:29:48 54° W 20:34:03 10° S visible
23 Jan 5.9 20:43:27 10° NW 20:46:53 23° W 20:50:22 10° SSW visible
24 Jan 6.9 21:03:23 10° W 21:03:59 10° W 21:04:36 10° WSW visible
25 Jan 3.5 19:39:14 10° N 19:43:30 65° E 19:47:49 10° SSE visible
26 Jan 4.5 19:56:23 10° NNW 20:00:35 52° W 20:04:50 10° S visible
27 Jan 6.2 20:14:17 10° NW 20:17:41 23° W 20:21:06 10° SW visible
28 Jan 6.6 06:45:32 10° SE 06:48:48 20° E 06:52:02 10° NE visible
31 Jan 6.5 19:45:09 10° NW 19:48:29 22° W 19:51:51 10° SW visible
